Home   Weather   Toulouse   Past weeks

Flag for France Past Weather in Toulouse, Midi-Pyrénées, France — Yesterday and Last 2 Weeks

Now
64 °F

Mostly cloudy.


Feels Like: 64 °F
Forecast: 58 / 71 °F
Wind: 9 mph from Northwest

Location: Toulouse / Blagnac

Current Time: Oct 1, 2016 at 8:57:01 PM

Latest Report: Oct 1, 2016 at 8:30 PM


Visibility: N/A

Pressure: 30.01 "Hg

Humidity: 78%

Dew Point: 57 °F

Location of ToulouseLocation

Past Weather in Toulouse — Graph

°F

Toulouse Temperature Yesterday

Maximum temperature yesterday: 82 °F (at 3:30 PM)
Minimum temperature yesterday: 63 °F (at 4:30 AM)
Average temperature yesterday: 71 °F

High & Low Weather Summary for the Past Weeks

 TemperatureHumidityPressure
High84 °F (Sep 29, 5:00 PM)94% (Sep 16, 8:00 PM)30.45 "Hg (Sep 16, 8:00 PM)
Low52 °F (Sep 22, 6:00 AM)26% (Sep 28, 5:00 PM)29.89 "Hg (Oct 1, 1:00 AM)
Average66 °F65%30.15 "Hg
* Reported Sep 16 7:00 PM — Oct 1 7:30 PM, Toulouse, Weather by CustomWeather, © 2016

Note: Actual official high and low records may vary slightly from our data, if they occured in-between our weather recording intervals... More about our weather records

Advertising

Toulouse Weather History for the Previous 24 Hours

Scroll right to see more
 ConditionsComfort  
Time TempWeatherWind HumidityBarometerVisibility
7:30 PM
Sat, Oct 1
66 °FMostly cloudy.7 mph73%29.98 "HgN/A
7:00 PM68 °FPartly sunny.7 mph69%29.98 "HgN/A
6:30 PM68 °FPartly sunny.7 mph69%29.95 "HgN/A
6:00 PM68 °FPartly sunny.8 mph69%29.95 "HgN/A
5:30 PM70 °FBroken clouds.8 mph64%29.98 "HgN/A
5:00 PM68 °FBroken clouds.9 mph69%29.95 "HgN/A
4:30 PM70 °FPartly sunny.7 mph64%29.95 "HgN/A
4:00 PM70 °FPartly sunny.6 mph64%29.95 "HgN/A
3:30 PM70 °FPartly sunny.7 mph64%29.98 "HgN/A
3:00 PM68 °FMostly cloudy.5 mph69%29.98 "HgN/A
2:30 PM70 °FPartly sunny.2 mph64%29.98 "HgN/A
2:00 PM70 °FPartly sunny.3 mph69%29.98 "HgN/A
1:30 PM66 °FBroken clouds.2 mph73%29.98 "HgN/A
1:00 PM64 °FBroken clouds.3 mph78%29.98 "HgN/A
12:30 PM64 °FBroken clouds.3 mph78%29.98 "HgN/A
12:00 PM64 °FLight rain. Partly sunny.5 mph78%30.01 "HgN/A
11:30 AM64 °FOvercast.3 mph73%29.98 "HgN/A
11:00 AM64 °FOvercast.5 mph78%29.98 "HgN/A
10:30 AM64 °FOvercast.5 mph78%29.95 "HgN/A
10:00 AM64 °FMostly cloudy.5 mph78%29.95 "HgN/A
9:30 AM63 °FOvercast.6 mph83%29.95 "HgN/A
9:00 AM63 °FMostly cloudy.10 mph83%29.92 "HgN/A
8:30 AM63 °FOvercast.9 mph88%29.92 "HgN/A
8:00 AM64 °FLight rain. Mostly cloudy.6 mph88%29.92 "HgN/A
7:30 AM64 °FLight rain. Mostly cloudy.3 mph83%29.92 "HgN/A
7:00 AM64 °FLight rain. Overcast.5 mph83%29.89 "HgN/A
6:30 AM64 °FLight rain. Mostly cloudy.5 mph83%29.89 "HgN/A
6:00 AM64 °FPartly cloudy.1 mph83%29.89 "HgN/A
5:30 AM64 °FPartly cloudy.5 mph78%29.89 "HgN/A
5:00 AM66 °FMostly cloudy.2 mph78%29.89 "HgN/A
4:30 AM66 °FMostly cloudy.8 mph78%29.89 "HgN/A
4:00 AM66 °FPartly cloudy.6 mph83%29.92 "HgN/A
3:30 AM68 °FMostly cloudy.7 mph78%29.92 "HgN/A
3:00 AM68 °FMostly cloudy.8 mph78%29.92 "HgN/A
2:30 AM68 °FMostly cloudy.9 mph78%29.92 "HgN/A
2:00 AM68 °FMostly cloudy.13 mph78%29.89 "HgN/A
1:30 AM68 °FClear.14 mph78%29.89 "Hg10 mi
1:00 AM68 °FPassing clouds.13 mph78%29.89 "HgN/A
12:30 AM68 °FClear.13 mph78%29.92 "Hg10 mi
12:00 AM68 °FClear.13 mph78%29.92 "Hg10 mi
11:30 PM
Fri, Sep 30
68 °FClear.15 mph78%29.92 "Hg10 mi
11:00 PM68 °FClear.15 mph78%29.95 "Hg10 mi
10:30 PM68 °FPassing clouds.14 mph73%29.95 "HgN/A
10:00 PM70 °FClear.15 mph69%29.95 "Hg10 mi
9:30 PM70 °FPassing clouds.17 mph69%29.95 "HgN/A
9:00 PM72 °FPassing clouds.15 mph65%29.95 "HgN/A
8:30 PM72 °FClear.14 mph61%29.95 "Hg10 mi
8:00 PM73 °FClear.10 mph57%29.95 "Hg10 mi
Weather by CustomWeather, © 2016

See weather overviewHow to use our weather pages